Regional Weather Roundup
Issued by NWS Glasgow, MT

Home | Current Version | Previous Version | Text Only | Print | Product List | Glossary On
Versions: 1 2 3 4 5 6 7 8 9 10 11 12 13 14 15 16 17 18 19 20 21 22 23 24 25 26 27
000
ASUS45 KGGW 130015
RWRGGW
HOURLY REGIONAL WEATHER ROUNDUP FOR NORTHEAST MONTANA
NATIONAL WEATHER SERVICE GLASGOW MONTANA
500 PM MST TUE DEC 12 2017

NOTE: "FAIR" INDICATES FEW OR NO CLOUDS BELOW 12,000 FEET WITH NO
SIGNIFICANT WEATHER AND/OR OBSTRUCTIONS TO VISISBILITY.

NORTHEAST MONTANA


CITY           SKY/WX    TMP DP  RH WIND       PRES   REMARKS
GLASGOW        CLOUDY    53  16  23 NW30G38   29.86R
6HR MIN TEMP:  36; 6HR MAX TEMP:  55;

PLENTYWOOD       N/A     46  21  37 NW13G26     N/A
WOLF POINT     CLOUDY    53  13  20 W22G33    29.80R
JORDAN           N/A     56   8  14 NW25G39   29.92R
WINNETT          N/A     59  -2   8 W25G41      N/A
SIDNEY         CLOUDY    52  11  19 W16G23    29.75
GLENDIVE       CLOUDY    49  12  22 W15       29.82F
MALTA            N/A     53  15  22 W18G30      N/A

FORT PECK REPORTS


CITY           SKY/WX    TMP DP  RH WIND       PRES   REMARKS
FORT PECK        N/A     55  18  23 W29G41      N/A
THE PINES        N/A     55   6  14 W15G25      N/A

SOUTHEAST MONTANA


CITY           SKY/WX    TMP DP  RH WIND       PRES   REMARKS
BILLINGS       CLOUDY    52   5  15 W18       30.09R
MILES CITY     CLOUDY    51  18  27 W16       29.91F
BAKER          CLOUDY    45  21  38 W21       29.85F
LIVINGSTON     CLOUDY    48  11  22 SW21      30.22R

CENTRAL MONTANA


CITY           SKY/WX    TMP DP  RH WIND       PRES   REMARKS
HAVRE          CLOUDY    51  10  19 W9        30.07R
LEWISTOWN      CLOUDY    47  11  23 W7        30.11R
GREAT FALLS    CLOUDY    48   5  17 SW23      30.14F
CUT BANK       CLOUDY    45   7  21 W21       30.14R
HELENA         CLOUDY    26  21  81 CALM      30.30F
BUTTE          CLOUDY    25  16  68 SE5       30.32S
BOZEMAN        CLOUDY    28  21  75 SW6       30.31R

WESTERN MONTANA


CITY           SKY/WX    TMP DP  RH WIND       PRES   REMARKS
MISSOULA       CLOUDY    20  17  88 CALM      30.43F
KALISPELL      NOT AVBL

NORTH DAKOTA


CITY           SKY/WX    TMP DP  RH WIND       PRES   REMARKS
WILLISTON      CLOUDY    47  18  31 W20       29.68F
DICKINSON      CLOUDY    46  20  35 W16       29.72F
MINOT          CLOUDY    47  22  37 SW16      29.60F
BISMARCK       CLOUDY    47  25  42 SW8       29.70F

SOUTHERN SASKATCHEWAN


CITY           SKY/WX    TMP DP  RH WIND       PRES   REMARKS
REGINA         CLOUDY    37  30  75 NW16      29.67R
MOOSE JAW      MOCLDY    45  30  57 NW28G38   29.72R
ESTEVAN        CLOUDY    41  27  56 W15       29.62S
SWIFT CURRENT  MOCLDY    39  28  65 W18       29.85S





USA.gov is the U.S. government's official web portal to all federal, state and local government web resources and services.